Home   Weather   Salzgitter   Past weeks

Flag for Germany Past Weather in Salzgitter, Lower Saxony, Germany — Yesterday and Last 2 Weeks

Now
34 °F

Overcast.


Feels Like: 29 °F
Forecast: 22 / 35 °F
Wind: 6 mph from West

Location: Braunschweig Wolfsburg

Current Time: Dec 6, 2016 at 7:15:32 pm

Latest Report: Dec 6, 2016 at 6:20 pm


Visibility: N/A

Pressure: 30.51 "Hg

Humidity: 81%

Dew Point: 28 °F

Location of SalzgitterLocation

Past Weather in Salzgitter — Graph

°F

Salzgitter Temperature Yesterday

Maximum temperature yesterday: 39 °F (at 1:50 pm)
Minimum temperature yesterday: 19 °F (at 6:50 am)
Average temperature yesterday: 31 °F

High & Low Weather Summary for the Past Weeks

 TemperatureHumidityPressure
High57 °F (Nov 22, 12:20 pm)100% (Nov 23, 6:50 pm)30.57 "Hg (Nov 23, 6:50 pm)
Low19 °F (Nov 29, 7:20 am)52% (Dec 5, 1:50 pm)29.62 "Hg (Nov 21, 5:20 pm)
Average37 °F83%30.23 "Hg
* Reported Nov 21 5:20 pm — Dec 6 5:50 pm, Salzgitter, Weather by CustomWeather, © 2016

Note: Actual official high and low records may vary slightly from our data, if they occured in-between our weather recording intervals... More about our weather records

Advertising

Salzgitter Weather History for the Previous 24 Hours

Scroll right to see more
 ConditionsComfort  
Time TempWeatherWind HumidityBarometerVisibility
5:50 pm
Tue, Dec 6
34 °FPassing clouds.2 mph81%30.51 "HgN/A
5:20 pm34 °FPassing clouds.3 mph81%30.48 "HgN/A
4:50 pm34 °FOvercast.3 mph81%30.48 "HgN/A
4:20 pm34 °FOvercast.3 mph81%30.48 "HgN/A
3:50 pm34 °FPartly sunny.2 mph81%30.48 "HgN/A
3:20 pm34 °FOvercast.3 mph81%30.48 "HgN/A
2:50 pm36 °FOvercast.2 mph75%30.48 "HgN/A
2:20 pm34 °FOvercast.5 mph81%30.48 "HgN/A
1:50 pm34 °FPartly sunny.5 mph75%30.45 "HgN/A
1:20 pm34 °FOvercast.6 mph75%30.45 "HgN/A
12:50 pm34 °FOvercast.5 mph75%30.45 "HgN/A
12:20 pm34 °FOvercast.7 mph81%30.45 "HgN/A
11:50 am32 °FPartly sunny.6 mph80%30.45 "HgN/A
11:20 am32 °FPartly sunny.5 mph80%30.45 "HgN/A
10:50 am30 °FPartly sunny.5 mph86%30.45 "HgN/A
10:20 am30 °FPartly sunny.3 mph80%30.45 "HgN/A
9:50 am30 °FPartly sunny.5 mph80%30.45 "HgN/A
9:20 am28 °FPartly sunny.5 mph86%30.45 "HgN/A
8:50 am28 °FScattered clouds.6 mph86%30.45 "HgN/A
8:20 am27 °FPartly sunny.5 mph86%30.42 "HgN/A
7:50 am25 °FPassing clouds.5 mph93%30.42 "HgN/A
7:20 am23 °FOvercast.6 mph93%30.42 "HgN/A
6:50 am21 °FOvercast.2 mph93%30.39 "HgN/A
9:50 pm
Mon, Dec 5
28 °FClear.2 mph80%30.33 "Hg10 mi
9:20 pm27 °FClear.2 mph80%30.33 "Hg10 mi
8:50 pm28 °FClear.1 mph86%30.33 "Hg10 mi
8:20 pm30 °FClear.1 mph80%30.33 "Hg10 mi
7:50 pm28 °FClear.No wind80%30.33 "Hg10 mi
7:20 pm30 °FClear.3 mph75%30.30 "Hg10 mi
Weather by CustomWeather, © 2016

See weather overviewHow to use our weather pages